Regional Weather Roundup
Issued by NWS

Home | Current Version | Previous Version | Graphics & Text | Print | Product List | Glossary On
Versions: 1 2 3 4 5 6 7 8 9 10 11 12 13 14 15 16 17 18 19 20 21 22 23 24 25 26 27 28 29 30 31 32 33 34 35 36 37 38 39 40 41 42 43 44 45 46 47 48 49 50
000
ASUS45 KBOU 201007
RWRCO

WEATHER ROUNDUP FOR COLORADO
NATIONAL WEATHER SERVICE DENVER/BOULDER CO
400 AM MDT MON OCT 20 2014

NOTE: "FAIR" INDICATES FEW OR NO CLOUDS BELOW 12000 FEET WITH NO
SIGNIFICANT WEATHER AND/OR OBSTRUCTIONS TO VISIBILITY.

COZ001>005-013-030-031-201100-
...NORTHWEST COLORADO...

CITY           SKY/WX    TMP DP  RH WIND       PRES   REMARKS
CRAIG          CLEAR     33  28  81 CALM      30.19S
HAYDEN         CLEAR     43  28  56 SE13      30.20R
MEEKER         CLEAR     38  33  82 CALM      30.20S
MOUNT WERNER   NOT AVBL
STEAMBOAT SPGS CLEAR     37  29  74 CALM      30.22S
WALDEN         CLEAR     30  25  80 CALM      30.27F
$$

COZ006>008-011-201100-
...WEST CENTRAL VALLEYS...

CITY           SKY/WX    TMP DP  RH WIND       PRES   REMARKS
GRAND JUNCTION CLEAR     44  30  57 E6        30.11R
MONTROSE       CLEAR     45  38  76 S3        30.18S
EAGLE          CLEAR     37  34  87 CALM      30.26F
RIFLE          CLEAR     41  34  76 CALM      30.17S
DELTA          CLEAR     51  38  61 NE7       30.15S
NUCLA          CLEAR     45  36  70 NE5       30.22S
$$

COZ017>023-064>068-201100-
...SOUTHWEST COLORADO...

CITY           SKY/WX    TMP DP  RH WIND       PRES   REMARKS
DURANGO        CLEAR     41  39  93 CALM      30.22S
CORTEZ         CLEAR     40  38  93 NE7       30.18F
PAGOSA SPRINGS CLEAR     39  39 100 CALM      30.27S
TELLURIDE      CLEAR     41  35  80 SE6       30.33S
WOLF CREEK PAS CLEAR     32  32 100 E3        30.46S
$$

COZ009-010-012-014-032>034-037-058>063-201100-
...CENTRAL COLORADO...

CITY           SKY/WX    TMP DP  RH WIND       PRES   REMARKS
ASPEN          CLEAR    N/A N/A N/A SW8       30.26F
BUENA VISTA    PTCLDY    38  32  78 N5        30.31S
COPPER MTN     CLEAR     39  27  60 S21       30.47S
BERTHOUD PASS  FAIR      32  28  86 W8        30.50S WCI  25
COTTONWOOD PAS PTCLDY    45  32  61 NW3       30.38F
GUNNISON       CLEAR     37  28  70 NE3       30.32S
KREMMLING      CLEAR     32  27  80 CALM        N/A
LEADVILLE      CLEAR     31  28  89 NE3       30.38F
SALIDA         PTCLDY    42  35  74 W5        30.37S
SUNLIGHT       CLEAR     41  32  70 CALM      30.42S
WILKERSON PASS NOT AVBL
$$

COZ069>075-201100-
...SAN LUIS VALLEY/SANGRE DE CRISTO MOUNTAINS...

CITY           SKY/WX    TMP DP  RH WIND       PRES   REMARKS
ALAMOSA        PTCLDY    35  30  82 N5        30.27F WCI  31
LA VETA PASS   CLEAR     39  30  70 E3        30.39S
SAGUACHE       CLEAR     41  36  81 NW12      30.30S
$$

COZ035-036-038>040-201100-
...NORTHERN COLORADO FRONT RANGE...

CITY           SKY/WX    TMP DP  RH WIND       PRES   REMARKS
DENVER INTL AP PTCLDY    49  36  61 SW12      30.15F
DMNS CITY PARK   N/A     47  35  64 S5        30.15S
AURORA         PTCLDY    50  37  60 SW8       30.17S
FRONT RANGE AP CLEAR     48  39  71 SW7       30.16S
ERIE MUNI ARPT CLEAR     39  35  85 SW3       30.15S
BOULDER MUN AP CLEAR     46  34  61 CALM      30.15S
CENTENNIAL     PTCLDY    46  36  68 S8        30.18S
BROOMFIELD     CLEAR     46  32  57 CALM      30.17S
FORT COLLINS   CLEAR     45  36  70 N7        30.16S
LONGMONT       CLEAR     41  36  80 CALM      30.17S
$$

COZ041-046-047-076>085-087-088-201100-
...PIKES PEAK/PALMER DIVIDE AND SOUTHERN FOOTHILLS...

CITY           SKY/WX    TMP DP  RH WIND       PRES   REMARKS
COLO. SPRINGS  CLEAR     43  36  76 NW3       30.23S
A. F. ACADEMY  CLEAR     38  32  81 N12       30.23F
ELLICOTT       NOT AVBL
FALCON         CLEAR     38  34  82 CALM      30.25F
FORT CARSON    CLEAR     44  35  71 NW7       30.20F
LIMON          CLEAR     37  35  92 N5        30.18F
MONUMENT HILL  CLEAR     41  34  75 S9        30.23F
TRINIDAD       CLEAR     46  36  68 W10       30.18S
$$

COZ042>045-048>051-090-091-201100-
...NORTHEAST COLORADO...

CITY           SKY/WX    TMP DP  RH WIND       PRES   REMARKS
GREELEY ARPT   CLEAR     37  30  75 N6        30.15S
AKRON          CLEAR     47  39  74 SW8       30.14F
BURLINGTON     CLEAR     40  36  86 NW5       30.13S
WRAY           CLEAR     37  35  92 W6        30.12S
STERLING       CLEAR     39  37  93 W3        30.13S
HOLYOKE        CLEAR     41  36  81 W7        30.12F
FORT MORGAN    CLEAR     43  34  71 W5        30.14S
$$

COZ086-089-092>099-201100-
...SOUTHEAST COLORADO...

CITY           SKY/WX    TMP DP  RH WIND       PRES   REMARKS
PUEBLO         CLEAR     45  37  73 N6        30.16R
LA JUNTA       CLEAR     49  41  74 CALM      30.13S
LAMAR          CLEAR     47  41  80 CALM      30.10S
SPRINGFIELD      N/A     41  39  93 NW8       30.11F
$$


USA.gov is the U.S. government's official web portal to all federal, state and local government web resources and services.